Weather in Sanboli

Russia / Khabarovsk Krai     49°22′03″N   135°10′32″E
temp.,
°C
wind,
m/s
gust,
m/s
humid.,
%
clouds,
%
prec.,
mm/h
press.,
hPa
HPBL,
m
25 june, fri
fri2501:00+18wsw2292100 0.0 100520
04:00+17sw229496 0.0 100426
07:00+19sw2490100 0.0 1004163
10:00+24sw467191 0.0 1003680
13:00+28sw5754100 0.0 10021567
16:00+29sw685656 0.0 10001473
19:00+27wsw51162100 0.0 1000572
22:00+18e1498100 4.8 1004157
26 june, sat
sat2601:00+18ene41097100 3.3 1006429
04:00+15e2897100 3.9 1008436
07:00+15e2795100 0.6 1009394
10:00+17ene458986 0.6 1010537
13:00+20ene327598 0.5 1010832
16:00+22ene117097 0.6 1009806
19:00+22nne2478100 0.1 1009292
22:00+18se1192100 0.9 100911
27 june, sun
sun2701:00+17w119586 0.8 100911
04:00+16sw11965 1.1 100811
07:00+18sw23935 0.0 1008151
10:00+24wsw35721 0.0 1007598
13:00+29w455417 0.0 10061449
16:00+31sw565116 0.0 10042048
19:00+23n347497 0.9 1005125
22:00+18ne379895 4.0 1008297
28 june, mon
mon2801:00+17ne379797 1.1 1008290
04:00+15nne279633 1.8 1009224
07:00+15nne369046 0.0 1010245
10:00+21ene35707 0.0 1009612
13:00+24ene336328 0.0 1008918
16:00+26ene326254 0.0 1006861
19:00+24e3576100 0.1 1006337
22:00+18ne4894100 3.5 1007255
29 june, tue
tue2901:00+16ne2697100 0.4 1007207
04:00+16ene499882 1.3 1008379
07:00+16ene41095100 1.1 1009478
10:00+16ene3994100 1.7 1010557
13:00+16ne3995100 2.1 1011641
16:00+16ne51089100 3.5 1010669
19:00+16ene6128696 1.1 1011625
22:00+14ne51288100 2.1 1011536